Torna al catalogo

COSMOS 839 DEB

AttivoUNKNOWN
NORAD 10451·DEBRIS·🇷🇺 Russia

Lanciato Jul 8, 1976 da Plesetsk Cosmodrome

Loading…

Prossimi Passaggi (prossime 24 ore)

TLE

AggiornatoSource: Space-Track

Epoca: Sep 14, 2026, 08:20 UTC

1 10451U 76067AC  26257.34783544 -.00000061  00000-0 -11361-4 0  9992
2 10451  65.8493 250.8019 0763137  68.1269 299.9072 12.45892771281984

Traccia COSMOS 839 DEB in tempo reale con AllMySat

Download on the App Store